Weather History for Beverly, MA

Change the Weather History Date:

Wednesday, December 5, 2012

  Actual Average Record
Temperature  
Mean Temperature 46 °F -  
Max Temperature 60 °F 41 °F 64 °F (2001)
Min Temperature 32 °F 25 °F 12 °F (2003)
Degree Days  
Heating Degree Days 18    
Moisture  
Dew Point 39 °F    
Average Humidity 64    
Maximum Humidity 88    
Minimum Humidity 41    
Precipitation  
Precipitation 0.01 in - - ()
Sea Level Pressure  
Sea Level Pressure 29.91 in    
Wind  
Wind Speed 12 mph (West)    
Max Wind Speed 21 mph    
Max Gust Speed 33 mph    
Visibility 10 miles    
Events Rain    
Averages and records for this station are not official NWS values.
T = Trace of Precipitation, MM = Missing Value Source: NWS Daily Summary

Daily Weather History Graph

Daily Weather History Graph

Search for Another Location

Airport:

Trip Planner

Search our weather history database for the weather conditions in past years. The results will help you decide how hot, cold, wet, or windy it might be!

Date:

Astronomy

Dec. 05, 2012 Rise Set
Actual Time 6:58 AM EST 4:10 PM EST
Civil Twilight 6:26 AM EST 4:42 PM EST
Nautical Twilight 5:51 AM EST 5:17 PM EST
Astronomical Twilight 5:17 AM EST 5:51 PM EST
Moon 11:03 PM EST (12/5) 11:14 AM EST (12/5)
Length of Visible Light 10h 15m
Length of Day
9h 11m
Waning Gibbous, 60% of the Moon is Illuminated
Dec 5
Waning Gibbous
Dec 6
Last Quarter
Dec 13
New
Dec 20
First Quarter
Dec 28
Full

Hourly Weather History & Observations

Time (EST) Temp. Windchill Dew Point Humidity Pressure Visibility Wind Dir Wind Speed Gust Speed Precip Events Conditions
12:53 AM 59.0 °F - 53.1 °F 81% 29.93 in 9.0 mi South 9.2 mph 18.4 mph N/A   Overcast
1:21 AM 60.8 °F - 53.6 °F 77% 29.92 in 10.0 mi SSW 15.0 mph 20.7 mph N/A   Overcast
1:53 AM 59.0 °F - 53.1 °F 81% 29.89 in 10.0 mi South 8.1 mph - N/A   Overcast
2:16 AM 57.2 °F - 53.6 °F 88% 29.89 in 9.0 mi South 8.1 mph - N/A   Overcast
2:53 AM 57.9 °F - 53.1 °F 84% 29.86 in 9.0 mi South 5.8 mph - N/A   Mostly Cloudy
3:05 AM 57.2 °F - 53.6 °F 88% 29.86 in 10.0 mi South 9.2 mph - N/A   Scattered Clouds
3:53 AM 57.0 °F - 52.0 °F 83% 29.82 in 10.0 mi South 10.4 mph - N/A   Clear
4:53 AM 57.0 °F - 52.0 °F 83% 29.81 in 10.0 mi SW 11.5 mph - N/A   Mostly Cloudy
5:40 AM 57.2 °F - 51.8 °F 82% 29.83 in 10.0 mi SW 12.7 mph - 0.01 in Rain Light Rain
5:53 AM 57.0 °F - 52.0 °F 83% 29.83 in 10.0 mi WSW 10.4 mph - 0.01 in   Overcast
6:19 AM 57.2 °F - 51.8 °F 82% 29.84 in 10.0 mi West 8.1 mph 17.3 mph N/A   Overcast
6:53 AM 57.0 °F - 50.0 °F 77% 29.84 in 10.0 mi West 9.2 mph 16.1 mph 0.00 in Rain Light Rain
7:32 AM 55.4 °F - 48.2 °F 77% 29.87 in 10.0 mi NW 8.1 mph - 0.00 in   Overcast
7:53 AM 54.0 °F - 46.9 °F 77% 29.86 in 10.0 mi NW 8.1 mph - 0.00 in   Overcast
9:53 AM 54.0 °F - 39.9 °F 59% 29.89 in 10.0 mi WNW 8.1 mph 19.6 mph N/A   Mostly Cloudy
10:02 AM 53.6 °F - 39.2 °F 58% 29.90 in 10.0 mi West 17.3 mph 20.7 mph N/A   Mostly Cloudy
10:53 AM 55.0 °F - 37.9 °F 53% 29.88 in 10.0 mi NW 15.0 mph 20.7 mph N/A   Scattered Clouds
11:53 AM 55.9 °F - 34.0 °F 44% 29.86 in 10.0 mi WNW 16.1 mph 25.3 mph N/A   Partly Cloudy
12:53 PM 55.0 °F - 33.1 °F 43% 29.86 in 10.0 mi West 15.0 mph 24.2 mph N/A   Mostly Cloudy
1:53 PM 54.0 °F - 33.1 °F 45% 29.86 in 10.0 mi WNW 6.9 mph 18.4 mph N/A   Scattered Clouds
2:53 PM 52.0 °F - 30.0 °F 43% 29.87 in 10.0 mi West 13.8 mph 23.0 mph N/A   Clear
3:53 PM 50.0 °F - 27.0 °F 41% 29.90 in 10.0 mi WNW 19.6 mph 28.8 mph N/A   Scattered Clouds
4:53 PM 46.9 °F - 28.0 °F 48% 29.93 in 10.0 mi WNW 19.6 mph 27.6 mph N/A   Mostly Cloudy
5:53 PM 43.0 °F 35.1 °F 21.9 °F 43% 29.97 in 10.0 mi NW 17.3 mph 28.8 mph N/A   Overcast
6:53 PM 42.1 °F 34.9 °F 23.0 °F 47% 30.01 in 10.0 mi NW 13.8 mph 29.9 mph N/A   Overcast
7:53 PM 39.0 °F 29.0 °F 23.0 °F 53% 30.04 in 10.0 mi NNW 20.7 mph 26.5 mph N/A   Overcast
8:53 PM 37.9 °F 28.2 °F 19.0 °F 47% 30.05 in 10.0 mi NW 18.4 mph 33.4 mph N/A   Overcast
9:53 PM 35.1 °F 25.2 °F 16.0 °F 46% 30.07 in 10.0 mi NNW 16.1 mph 26.5 mph N/A   Mostly Cloudy
10:53 PM 33.1 °F 21.9 °F 15.1 °F 48% 30.09 in 10.0 mi NW 18.4 mph 28.8 mph N/A   Clear
11:53 PM 32.0 °F 21.6 °F 15.1 °F 50% 30.11 in 10.0 mi NW 15.0 mph 26.5 mph N/A   Mostly Cloudy